Location: Poughquag
(41.6090°N, 73.6820°W)
Time: 09:25:46
(UTC-04:00)

AO-85 - Visible Passes

Search period start: 02 April 2020 00:00
Search period end: 12 April 2020 00:00
Orbit: 521 x 762 km, 64.8° (Epoch: 12 March)

Date Brightness Start Highest point End Pass type
(mag) Time Alt. Az. Time Alt. Az. Time Alt. Az.
02 Apr ? 21:23:25 10° N 21:25:55 22° NNE 21:25:55 22° NNE visible
02 Apr ? 23:03:25 10° NW 23:03:31 11° NW 23:03:31 11° NW visible
03 Apr ? 21:47:26 10° NNW 21:50:00 36° N 21:50:00 36° N visible
04 Apr ? 20:32:37 10° N 20:35:11 16° NE 20:36:31 14° ENE visible
04 Apr ? 22:11:57 10° NW 22:14:07 30° WNW 22:14:07 30° WNW visible
05 Apr ? 20:56:21 10° NNW 21:00:00 35° NE 21:00:41 33° ENE visible
05 Apr ? 22:37:09 10° WNW 22:38:18 15° WNW 22:38:18 15° WNW visible
06 Apr ? 21:20:38 10° NNW 21:24:35 88° WSW 21:24:56 74° SSE visible
07 Apr ? 20:05:22 10° N 20:08:37 24° NE 20:11:37 12° E visible
07 Apr ? 21:45:26 10° NW 21:48:59 32° WSW 21:49:15 31° SW visible
08 Apr ? 20:29:25 10° NNW 20:33:19 57° NE 20:36:00 19° SE visible
08 Apr ? 22:11:30 10° W 22:13:12 12° WSW 22:13:38 12° WSW visible
09 Apr ? 20:53:56 10° NW 20:57:47 52° WSW 21:00:29 19° S visible
10 Apr ? 21:19:11 10° WNW 21:22:06 20° WSW 21:25:04 10° SSW visible
11 Apr ? 20:02:36 10° NW 20:06:34 85° WSW 20:10:41 10° SSE visible
